GFSNIL_sfc_thetae_000.txt.gz
Theta_e
309 309 307 306 304 303 303 304 306 305 305 305 305 305 305 301 298 300 299 298 296 295
309 307 305 304 304 303 304 303 304 304 303 301 301 301 300 298 297 297 296 297 297 297
306 305 303 302 302 302 303 303 302 300 299 299 299 300 299 297 296 295 295 294 293 294
304 302 301 301 301 301 302 300 299 299 298 298 296 296 295 295 295 294 293 294 294 293
302 301 300 300 300 300 299 299 299 297 296 296 295 294 293 293 293 292 291 292 292 291
301 300 299 299 298 298 297 296 296 296 295 294 294 294 293 292 292 292 292 291 290 290
299 299 298 297 296 296 296 295 295 294 293 293 292 291 291 291 291 290 290 289 289 289
296 296 296 295 294 294 293 292 291 291 291 291 290 289 289 289 289 289 289 288 288 289
295 294 293 293 292 291 291 290 290 290 289 289 288 286 286 286 287 287 287 287 287 287
294 292 292 291 290 289 289 290 289 289 289 288 288 284 283 283 285 285 286 286 286 285
292 290 290 289 289 289 289 288 288 288 287 287 286 283 282 281 284 285 285 285 285 284
291 290 289 288 288 289 288 288 287 287 286 285 285 283 281 281 283 283 283 284 284 283
292 289 288 288 289 289 288 287 287 285 286 284 283 282 281 281 281 280 281 282 282 282
291 289 289 289 289 289 288 286 285 284 283 283 283 282 280 280 280 280 280 280 282 284

GFSNIL_sfc_thetae_003.txt.gz
Theta_e
311 310 308 307 305 304 304 305 306 305 306 305 305 304 304 302 302 300 299 297 296 296
309 308 306 305 304 304 305 303 304 304 303 303 302 301 301 299 298 299 298 297 297 296
307 306 305 304 303 303 303 303 303 302 301 300 299 299 297 297 298 296 297 296 295 294
305 304 303 302 302 302 302 301 300 299 298 297 296 296 296 296 295 295 295 295 295 294
303 303 302 301 300 300 300 299 299 297 296 296 296 295 295 294 293 293 292 292 292 292
301 300 300 299 298 298 297 297 297 296 295 294 294 293 293 292 292 292 291 291 291 290
299 298 298 297 296 296 295 294 293 292 292 292 291 291 291 291 290 289 290 290 290 290
297 297 296 295 294 294 293 292 292 291 291 291 291 289 289 289 288 287 288 289 289 290
296 296 295 294 293 292 291 291 291 291 290 290 289 285 285 285 285 285 285 285 287 288
295 295 293 292 291 290 290 291 290 290 290 289 289 284 283 283 284 283 284 285 285 285
295 294 293 291 290 290 290 290 289 289 289 288 287 285 283 282 283 283 283 284 284 284
295 294 291 290 290 290 290 289 289 288 288 286 286 285 283 282 282 281 281 282 283 284
294 293 291 290 290 290 290 289 288 287 286 285 284 285 282 282 281 280 280 282 282 283
294 293 291 290 290 289 289 289 287 286 286 285 285 284 282 281 281 280 280 280 281 283

GFSNIL_sfc_thetae_006.txt.gz
Theta_e
309 306 305 304 302 301 301 301 302 302 302 301 300 299 299 297 298 296 296 296 296 293
306 305 304 303 303 301 302 301 300 300 299 299 299 298 296 295 294 294 294 294 294 293
304 305 304 303 301 300 300 299 299 298 298 298 297 297 296 294 295 294 294 294 294 293
303 303 302 301 299 298 298 297 296 297 296 296 295 295 295 293 294 292 291 292 292 292
302 300 299 299 297 297 296 296 295 295 294 294 294 294 293 292 292 291 290 290 290 290
299 298 297 296 296 296 295 295 294 292 291 290 290 289 289 289 289 287 286 287 287 287
298 296 295 295 294 294 293 292 291 291 291 290 290 289 288 288 286 286 285 285 285 285
298 296 296 295 294 293 292 291 290 290 289 289 289 287 285 285 284 283 283 283 284 285
298 296 295 294 293 292 291 290 289 289 288 288 288 285 284 283 281 282 282 280 281 283
296 295 295 294 292 290 289 289 288 288 288 287 286 286 285 283 281 280 280 280 280 281
296 295 294 293 292 290 289 288 287 287 287 285 286 286 286 283 280 279 279 279 279 280
295 293 292 291 291 289 288 287 287 287 285 284 283 286 285 283 279 279 278 279 280 281
293 293 292 291 290 288 287 287 286 285 284 285 283 285 285 282 279 276 278 279 280 281
293 291 291 290 289 287 286 285 284 283 283 283 283 282 283 282 279 277 277 277 277 279

GFSNIL_sfc_thetae_009.txt.gz
Theta_e
301 300 302 301 300 298 296 296 296 297 297 297 296 295 294 293 293 295 294 293 293 292
302 303 301 300 297 296 296 297 295 295 295 295 295 297 296 294 294 293 292 291 292 294
301 301 299 296 294 294 294 294 294 293 293 293 294 294 293 291 291 291 290 292 291 290
299 297 296 295 294 294 293 293 293 293 293 292 292 291 291 291 290 290 290 290 290 288
297 295 294 293 293 292 292 293 292 291 289 289 288 287 287 287 287 285 284 284 284 284
297 293 292 291 292 291 290 289 289 288 288 288 288 287 286 286 285 284 284 283 283 282
297 295 292 293 292 291 290 288 287 288 288 288 287 286 285 284 283 282 282 283 282 282
296 296 294 293 293 292 290 288 287 287 287 287 286 285 283 282 280 280 280 281 281 281
295 295 295 295 293 290 288 286 286 286 286 285 285 285 284 282 279 280 279 278 278 279
294 294 293 294 292 290 288 285 285 285 285 284 282 286 286 284 280 279 278 277 278 278
293 292 293 293 290 288 287 284 283 283 283 283 284 286 286 284 279 278 278 278 279 278
291 291 291 291 289 287 284 283 283 283 282 281 281 285 285 282 278 278 278 279 279 279
291 290 289 290 289 284 283 283 283 282 282 283 280 283 283 282 278 275 276 277 278 279
290 289 289 287 284 283 281 281 279 279 279 280 280 279 281 280 277 276 276 276 276 278

GFSNIL_sfc_thetae_012.txt.gz
Theta_e
299 301 301 299 299 297 295 294 295 294 294 294 294 293 292 291 290 291 290 289 289 292
302 302 299 298 295 294 294 295 293 293 292 292 293 293 292 290 289 289 288 288 289 290
298 298 296 294 293 293 293 293 292 291 291 291 291 291 290 289 289 288 288 289 287 286
296 295 295 294 293 292 292 291 292 292 291 289 288 288 287 287 288 286 284 284 283 283
296 294 292 293 293 291 291 291 291 292 288 287 286 286 285 285 284 283 282 282 282 282
296 294 291 291 291 293 291 291 292 288 287 287 286 286 284 283 283 281 281 281 281 280
293 294 291 291 292 292 293 293 292 288 287 288 286 285 284 283 281 280 281 281 281 280
293 293 292 293 292 292 293 293 289 287 287 286 284 284 282 282 281 280 279 280 280 279
293 293 292 292 293 291 291 288 288 286 285 283 285 285 285 283 279 280 279 277 278 278
293 291 291 292 291 290 289 289 284 283 283 282 282 286 287 285 281 279 278 277 277 278
290 289 290 290 289 289 288 284 282 282 282 281 282 285 285 284 279 278 278 278 278 277
289 289 289 288 287 287 284 282 282 282 281 280 279 283 283 280 276 277 276 278 278 278
289 289 288 287 286 284 282 283 282 281 279 281 277 280 281 280 276 272 275 276 277 278
287 286 286 284 283 282 282 281 278 277 278 278 278 277 279 279 276 275 275 275 275 277

GFSNIL_sfc_thetae_015.txt.gz
Theta_e
298 299 298 297 297 296 294 294 294 293 292 292 292 292 291 290 289 288 287 286 286 287
298 299 297 296 294 294 293 294 293 293 293 292 292 291 291 289 288 287 287 286 286 286
296 297 296 294 293 292 292 295 293 293 293 292 292 290 289 288 287 287 287 286 283 282
296 295 294 293 292 292 292 291 292 293 292 291 288 287 286 286 286 285 283 282 282 282
295 294 292 291 291 291 292 292 290 291 291 288 287 286 285 284 284 282 281 281 281 280
292 292 292 290 290 290 289 289 290 291 289 286 287 286 285 283 282 281 281 281 280 280
291 291 290 290 289 289 289 290 289 291 288 287 287 285 283 282 281 280 281 281 280 280
291 291 291 291 290 290 291 291 291 287 287 286 284 283 282 282 281 280 279 280 280 280
291 291 291 291 290 290 290 289 287 288 283 282 284 286 286 285 281 281 280 278 279 279
290 290 289 289 289 288 287 289 285 282 282 281 282 286 286 284 281 279 278 277 277 277
288 288 288 288 287 286 286 284 281 281 281 281 282 283 283 281 277 276 277 276 276 276
288 288 287 286 286 285 283 282 281 282 280 278 277 281 281 280 276 276 276 277 276 277
288 286 285 284 284 282 282 283 281 280 279 280 276 279 280 279 274 270 275 276 276 278
285 284 284 282 281 281 281 280 278 277 277 278 277 276 279 279 273 274 275 275 275 276

GFSNIL_sfc_thetae_018.txt.gz
Theta_e
296 296 296 296 295 295 294 293 293 292 292 291 291 291 291 290 290 289 288 286 286 285
296 296 296 295 294 293 292 294 292 291 291 291 291 291 291 289 289 288 288 287 286 286
295 295 294 293 292 291 291 292 291 292 291 291 292 290 289 289 287 286 286 286 283 282
293 292 292 291 291 291 291 291 291 290 290 291 290 287 286 285 285 285 283 282 282 282
291 291 291 290 290 290 290 290 290 290 291 291 288 286 284 284 284 282 281 281 281 281
290 290 290 289 289 289 288 288 289 292 290 289 287 285 285 283 282 281 281 281 280 280
289 290 289 289 289 289 289 288 291 290 289 286 286 285 282 282 281 281 281 281 280 280
289 290 290 290 289 289 289 289 292 290 287 285 284 283 282 282 281 280 280 280 281 280
289 289 290 289 288 288 288 287 287 285 283 282 283 286 286 284 281 280 279 278 278 278
289 288 288 288 287 287 286 285 283 281 281 281 282 284 284 283 280 278 277 276 276 276
287 287 287 286 286 285 284 283 281 281 281 280 280 282 282 282 278 277 277 276 276 276
287 286 286 284 283 283 282 281 281 281 280 277 277 280 280 279 276 276 276 277 277 277
286 285 283 283 282 282 281 281 280 280 278 279 276 278 280 279 274 271 275 276 277 277
285 283 283 281 281 280 280 279 278 278 277 277 277 276 279 280 274 274 276 275 275 276

GFSNIL_sfc_thetae_021.txt.gz
Theta_e
305 305 305 305 304 303 302 302 302 302 299 298 298 298 298 297 297 296 295 294 293 292
305 304 302 301 301 301 301 300 301 300 299 298 298 298 297 296 296 296 295 294 294 293
300 300 300 300 299 299 299 299 300 300 299 298 297 296 296 295 295 294 293 293 292 291
299 299 299 298 298 298 298 298 297 298 297 296 294 294 295 294 292 291 291 291 289 288
298 298 298 297 297 297 296 297 296 296 296 295 293 296 293 291 290 290 289 288 287 287
296 297 297 296 297 297 296 296 296 295 295 294 295 291 291 289 288 287 287 287 286 286
295 296 297 297 297 297 296 296 296 296 295 292 291 289 288 287 288 287 287 286 286 285
294 296 296 296 296 295 295 295 295 293 291 289 288 287 288 288 287 286 284 284 283 282
294 295 295 295 295 294 294 294 293 291 288 288 287 286 285 285 285 283 282 281 281 281
293 293 294 293 293 293 292 292 291 288 287 286 286 283 283 282 284 282 281 280 279 279
292 292 292 292 292 291 291 291 290 287 286 285 283 281 281 281 282 281 280 280 279 279
292 291 291 290 290 290 289 289 287 287 284 283 282 280 280 281 281 280 279 280 280 279
291 290 290 289 289 288 288 287 286 284 283 280 281 279 280 281 281 279 279 280 279 278
289 289 289 288 288 287 287 286 284 283 283 282 281 281 279 280 281 280 279 278 277 278

GFSNIL_sfc_thetae_024.txt.gz
Theta_e
306 307 306 304 302 301 301 300 301 302 303 304 304 303 302 301 299 298 296 296 296 294
305 303 302 301 302 301 300 299 300 301 301 302 302 302 301 300 298 299 297 297 295 293
302 302 302 301 299 299 300 300 299 299 300 300 301 301 300 298 299 297 296 294 293 293
301 301 301 300 299 299 300 299 298 299 299 299 299 298 298 298 298 296 294 293 293 293
301 300 299 299 299 300 299 299 298 298 298 298 297 298 296 296 294 293 292 292 292 291
299 299 299 299 300 300 299 298 298 298 297 296 296 295 293 294 293 292 292 292 291 290
299 299 299 299 299 299 298 297 297 297 297 296 295 294 293 292 292 292 291 290 289 288
299 299 299 299 299 298 297 297 297 296 296 295 294 292 292 292 291 290 289 288 287 286
297 297 297 298 297 296 296 296 296 295 294 293 291 285 284 285 288 288 286 285 285 285
295 295 296 295 295 295 295 295 294 294 293 292 291 283 282 282 286 286 285 284 284 283
294 294 294 294 294 295 295 294 294 293 292 291 288 281 281 281 286 286 285 284 284 283
294 293 293 293 293 294 293 293 293 292 291 290 288 281 280 281 285 285 284 284 284 282
293 292 292 293 293 293 293 291 291 290 290 284 287 280 280 281 285 283 283 284 283 280
292 292 292 293 293 292 292 291 290 288 289 288 286 285 280 279 283 283 282 282 282 282

GFSNIL_sfc_thetae_027.txt.gz
Theta_e
307 306 306 305 304 303 301 301 302 302 301 301 302 303 304 302 300 301 300 298 297 296
305 304 302 303 304 302 301 300 301 301 300 300 301 301 302 301 300 300 300 299 298 296
304 303 303 303 302 301 301 301 300 300 299 300 300 300 300 299 299 298 299 297 296 295
302 303 303 302 301 301 301 300 299 299 298 298 298 298 299 298 298 297 297 296 295 294
303 302 302 301 301 301 300 301 299 298 298 297 297 297 296 296 296 294 293 293 293 292
302 301 301 301 300 301 300 300 299 298 297 296 296 295 295 294 293 293 293 293 292 291
301 301 301 300 300 300 300 298 297 297 297 297 296 294 294 293 293 293 292 292 290 289
301 301 300 299 299 300 299 297 297 297 296 296 294 293 292 292 291 290 290 290 289 288
299 299 298 297 298 298 297 296 297 296 295 294 293 285 285 285 288 289 288 287 287 287
298 296 296 296 296 295 296 296 295 295 295 294 292 285 283 283 286 287 287 287 286 285
296 295 295 295 294 295 296 295 295 294 294 293 290 284 282 282 286 288 287 287 286 285
294 294 293 293 293 294 294 294 294 293 292 291 289 283 282 282 286 286 286 286 286 284
294 293 293 293 293 294 294 293 293 291 292 288 290 283 282 281 285 285 285 285 285 282
293 293 293 293 293 293 293 292 292 291 291 291 289 287 283 281 283 284 283 283 283 284

GFSNIL_sfc_thetae_030.txt.gz
Theta_e
308 306 305 305 301 301 300 299 299 299 299 298 298 298 298 298 298 297 295 294 294 294
305 303 302 302 303 302 299 299 299 298 298 298 297 297 297 296 297 296 295 294 294 294
304 304 302 302 302 300 299 299 298 298 297 297 297 296 295 295 295 295 294 295 293 293
302 303 302 302 301 300 299 298 298 298 296 296 295 295 294 293 293 293 292 292 292 292
303 302 301 301 301 300 299 299 298 298 296 296 295 295 293 292 292 292 291 291 291 290
301 301 300 301 300 299 299 298 298 297 296 295 295 293 293 292 291 291 291 289 288 288
300 301 301 300 299 298 299 298 297 296 296 296 294 293 293 292 290 290 289 289 288 286
301 300 300 299 298 298 298 297 296 295 295 294 294 292 290 289 287 286 286 286 287 285
300 300 299 297 297 296 297 296 295 295 294 293 293 287 286 285 283 285 285 283 283 284
299 298 297 296 295 295 294 295 294 294 293 292 286 287 285 283 282 283 283 283 282 283
297 295 295 294 294 294 294 293 293 292 292 291 288 286 285 283 281 282 283 283 283 281
295 294 293 293 293 293 292 292 292 292 291 290 285 285 284 282 281 282 282 284 283 282
294 293 292 292 292 292 292 292 292 290 290 287 285 285 284 282 280 280 281 282 282 281
292 292 292 292 291 291 290 290 288 287 287 287 286 283 284 283 280 280 280 279 279 280

GFSNIL_sfc_thetae_033.txt.gz
Theta_e
301 301 301 299 297 299 298 298 297 296 294 294 295 294 294 293 294 294 292 291 291 291
301 299 297 297 298 300 296 298 296 294 294 294 294 294 293 292 292 292 291 291 291 291
298 297 297 298 299 298 296 297 296 296 295 294 293 294 293 292 291 291 290 291 289 289
297 297 298 299 300 298 298 297 295 295 294 293 293 292 291 290 290 290 290 290 289 290
298 299 299 299 300 299 297 296 295 295 293 293 293 292 291 290 290 289 288 288 288 289
299 299 299 299 299 297 295 296 294 294 293 293 293 291 291 290 289 289 288 288 287 286
299 300 298 299 296 296 296 294 293 293 294 294 293 292 292 290 288 287 286 287 286 285
300 300 299 297 296 296 295 294 294 294 294 294 292 291 289 288 286 285 284 285 285 283
299 298 296 295 294 294 293 293 294 292 292 292 291 288 288 286 283 284 283 281 282 282
300 297 294 294 293 292 291 292 291 292 292 291 288 287 287 286 283 282 281 281 281 282
295 293 293 293 291 291 292 291 291 291 291 290 287 287 287 285 281 281 281 281 281 280
293 292 292 291 291 291 291 290 290 291 290 288 285 287 286 283 280 281 281 282 282 281
292 292 291 291 291 290 290 290 290 289 288 288 284 286 285 283 279 280 280 280 280 282
293 292 292 291 290 289 288 287 286 285 285 286 284 283 286 285 280 279 279 279 278 278

GFSNIL_sfc_thetae_036.txt.gz
Theta_e
304 303 301 301 300 299 297 297 297 297 296 295 294 293 292 291 292 291 290 289 289 289
301 301 301 302 302 300 297 298 297 296 294 295 294 292 291 291 291 290 289 289 288 288
300 301 301 300 299 297 297 298 296 296 295 294 293 292 291 291 290 290 289 289 288 288
298 299 299 299 299 298 298 297 297 297 294 293 292 292 290 290 289 289 288 288 289 288
298 301 300 299 299 298 298 298 296 295 293 292 291 291 290 289 290 289 288 287 287 287
297 298 298 298 299 300 297 295 294 293 292 292 291 291 290 290 289 289 289 288 286 285
298 299 298 297 298 296 295 293 294 293 292 292 292 292 291 290 289 288 287 286 285 284
299 299 299 296 296 295 294 294 294 292 292 293 293 292 291 289 287 285 285 285 284 283
299 296 296 295 294 292 294 293 292 292 292 292 292 290 290 288 285 285 283 282 282 282
298 296 294 294 293 292 291 291 291 291 291 290 290 289 289 287 283 282 282 281 281 281
294 293 293 291 291 292 291 291 290 289 289 289 289 288 288 286 282 281 281 281 281 280
292 291 292 291 291 291 290 289 288 289 289 288 287 288 287 284 281 280 281 282 282 281
292 292 291 291 290 289 289 288 288 287 287 288 285 287 287 285 281 280 281 281 281 283
293 293 291 289 288 287 286 286 285 284 284 284 284 283 287 287 281 280 280 280 279 279

GFSNIL_sfc_thetae_039.txt.gz
Theta_e
308 307 307 304 301 299 298 297 297 297 296 297 295 295 294 293 293 291 290 289 289 289
302 301 304 303 302 299 298 297 297 297 296 296 295 294 293 293 290 290 290 289 289 289
304 304 304 302 300 298 298 298 297 296 296 295 295 294 291 290 290 290 289 290 289 288
302 301 301 300 299 298 298 297 296 296 295 295 293 291 290 290 290 290 289 289 288 288
300 300 299 299 298 297 296 295 297 297 296 294 292 290 289 289 289 288 287 287 287 288
299 299 298 298 298 296 296 297 296 295 293 293 291 290 290 289 288 288 287 287 287 286
299 299 299 299 298 297 295 295 294 294 294 293 292 292 292 290 288 287 287 287 285 284
299 299 300 297 294 296 295 294 294 293 293 292 293 292 291 289 287 286 285 285 284 283
300 298 296 295 294 293 293 293 293 293 293 292 292 291 291 289 285 285 284 282 282 282
298 296 294 293 293 292 292 292 292 292 290 289 289 290 290 289 284 283 282 281 281 281
294 292 292 292 292 292 293 291 289 288 288 287 287 289 289 288 282 281 282 280 281 280
293 293 293 292 293 292 290 288 287 287 286 285 285 288 288 286 281 280 280 282 282 281
293 293 293 292 291 288 288 287 286 285 285 286 284 287 288 286 279 279 280 280 281 284
294 293 293 290 287 286 285 284 283 283 283 283 284 284 287 288 281 281 281 281 280 280

GFSNIL_sfc_thetae_042.txt.gz
Theta_e
314 313 311 309 305 301 297 295 295 296 297 296 297 296 294 293 294 292 290 289 289 290
314 311 310 308 304 299 297 297 297 297 297 298 296 295 294 294 293 292 290 289 288 288
309 309 308 305 302 299 299 298 296 297 298 296 295 295 293 292 291 289 290 289 288 288
304 305 306 304 304 301 299 296 295 296 296 295 294 293 292 291 290 290 289 289 287 287
305 305 303 302 299 297 295 296 296 296 295 295 293 293 291 289 291 289 287 287 287 287
301 302 300 298 298 297 297 296 296 296 295 295 295 291 290 291 289 288 288 287 286 286
299 298 299 299 298 298 297 295 295 295 295 294 292 292 292 290 289 287 287 286 286 286
298 297 298 297 295 295 294 294 294 294 295 295 293 292 292 291 288 286 285 286 285 284
298 297 296 293 292 293 294 295 295 295 294 293 294 292 291 290 286 286 285 284 283 283
296 294 294 294 293 293 293 294 294 293 293 291 289 289 290 290 286 284 283 282 282 282
294 292 293 293 293 293 293 293 292 290 288 287 287 288 289 288 285 283 282 282 281 281
293 293 293 293 293 294 292 290 289 287 286 285 285 287 288 287 283 281 281 281 281 281
294 294 294 293 292 290 289 287 286 285 285 285 284 286 288 287 281 280 281 280 282 285
295 294 293 291 288 287 285 284 283 283 283 283 283 283 287 288 282 281 281 281 281 282

GFSNIL_sfc_thetae_045.txt.gz
Theta_e
321 320 318 315 312 309 308 308 306 303 302 301 300 300 299 298 298 300 300 300 300 299
321 320 315 313 312 309 308 304 304 302 302 303 300 300 298 298 299 300 300 300 300 298
322 320 318 316 313 310 307 304 302 302 302 301 301 299 297 299 299 299 298 298 298 297
321 319 318 314 313 308 305 303 301 301 301 300 297 297 296 296 298 297 298 297 297 296
317 314 314 311 310 308 304 302 301 300 299 297 297 297 296 296 294 296 296 296 296 295
313 311 310 309 307 304 301 301 299 298 296 296 297 298 296 297 297 296 296 296 295 295
308 308 307 305 304 303 301 299 299 298 298 297 295 297 297 296 295 295 295 295 295 295
304 304 304 302 299 299 297 296 297 296 297 297 296 295 295 296 296 297 295 295 294 294
302 299 296 295 294 295 295 297 298 296 295 295 295 293 293 293 296 294 293 293 294 293
297 295 295 295 295 296 295 297 296 296 296 294 295 292 291 290 293 293 293 293 293 292
295 294 295 295 295 295 295 295 295 295 295 296 294 289 289 288 292 292 292 292 292 292
296 295 295 295 294 295 295 295 296 295 294 293 292 288 288 289 292 291 290 291 291 290
297 296 296 295 293 293 294 293 293 291 292 290 291 289 288 288 291 289 290 291 290 286
295 294 293 292 292 292 292 291 291 289 291 291 290 290 288 288 289 289 289 289 289 289

GFSNIL_sfc_thetae_048.txt.gz
Theta_e
331 328 328 328 326 322 315 313 314 313 313 313 310 307 303 303 306 304 304 302 302 302
327 327 327 328 324 315 313 313 314 312 310 306 307 305 302 303 300 300 303 303 302 302
327 327 327 326 318 316 316 314 312 308 307 306 303 302 302 299 300 300 301 300 301 302
327 327 326 324 321 321 319 315 308 309 308 304 301 300 297 298 299 298 298 299 300 300
328 325 323 322 321 319 312 309 308 305 301 302 298 298 297 297 296 297 297 299 299 299
321 319 316 314 311 309 307 305 302 301 302 299 298 296 297 298 298 297 299 299 298 298
315 313 311 310 307 305 305 302 301 300 298 297 297 298 298 298 298 298 298 298 298 298
310 309 309 311 309 306 303 301 300 299 296 298 298 298 298 297 296 296 297 299 299 299
309 308 306 303 302 302 299 300 298 299 299 298 298 293 292 294 296 297 298 296 297 297
303 301 301 301 300 299 301 300 299 298 298 297 297 293 293 291 297 296 296 296 296 295
302 301 301 301 300 300 299 298 297 296 297 298 297 292 290 289 294 296 296 296 295 295
302 301 301 299 299 299 297 295 297 298 298 298 298 290 289 289 295 294 295 295 295 295
302 301 300 298 295 294 296 298 297 296 296 293 295 292 290 290 293 292 293 294 294 290
299 296 294 293 296 297 297 295 295 293 294 294 293 294 290 289 291 291 292 292 292 293

GFSNIL_sfc_thetae_051.txt.gz
Theta_e
332 333 331 331 329 328 327 327 323 317 315 315 315 315 311 305 307 307 305 303 301 301
333 334 332 332 333 330 329 320 316 314 315 315 315 308 305 305 304 300 304 301 302 301
332 332 331 331 329 328 323 319 316 316 315 313 306 307 306 301 301 299 300 300 299 299
330 330 328 327 326 323 322 320 317 316 313 307 308 305 300 300 299 298 299 298 298 299
329 327 325 324 322 321 320 315 312 308 307 304 300 300 297 298 298 297 297 298 298 299
323 322 319 315 313 312 310 308 307 304 303 300 299 298 298 298 297 297 297 297 298 300
319 317 315 313 310 308 305 303 302 303 300 298 297 297 298 297 297 298 298 298 298 298
314 314 312 310 309 307 305 303 301 299 299 298 298 298 298 298 298 296 296 297 298 299
314 314 311 309 308 307 305 305 303 302 301 300 300 293 293 295 296 296 296 297 298 300
308 307 305 305 304 304 304 304 302 301 300 301 300 293 293 292 297 297 297 297 297 296
306 305 305 305 303 303 303 302 302 300 298 299 299 293 293 290 295 295 296 296 296 296
305 304 304 303 302 301 301 297 300 300 299 298 299 293 290 290 295 294 294 295 295 295
305 303 301 300 298 296 299 299 299 297 297 292 295 291 290 291 292 291 292 293 294 291
301 300 299 297 298 299 297 297 296 294 295 295 294 294 290 289 290 288 286 287 289 292

GFSNIL_sfc_thetae_054.txt.gz
Theta_e
328 328 326 325 324 325 325 324 324 322 321 317 315 314 312 308 304 304 304 303 299 300
327 326 326 326 327 325 325 324 320 320 315 314 313 312 307 305 305 303 302 301 299 299
326 325 325 323 328 327 323 318 316 315 315 313 312 306 305 303 300 300 299 299 298 298
324 325 327 328 325 326 321 319 317 315 314 311 306 305 301 299 298 297 298 297 297 297
329 328 326 324 322 320 318 317 316 312 307 305 303 300 298 298 298 297 296 297 297 297
325 320 317 315 313 312 310 307 306 304 303 300 300 298 298 297 297 296 296 297 297 297
317 314 312 310 308 306 304 303 302 302 300 299 298 298 298 297 296 296 297 297 297 297
313 312 310 308 305 304 303 302 300 299 298 298 297 298 297 297 296 296 297 297 298 298
313 312 310 307 305 303 302 300 300 299 298 297 299 294 294 296 296 296 295 295 296 297
310 307 306 305 304 302 301 301 301 299 299 298 297 293 293 292 295 295 294 294 294 294
306 304 304 303 302 301 300 300 300 299 297 297 298 293 293 291 292 291 291 291 292 291
304 303 302 301 300 300 299 297 298 299 297 296 296 293 291 289 290 290 289 291 291 290
304 303 299 299 298 297 298 299 298 296 295 291 291 289 288 289 286 284 283 285 286 287
301 300 299 297 297 297 296 295 291 290 291 292 288 286 285 284 281 280 280 280 281 281

GFSNIL_sfc_thetae_057.txt.gz
Theta_e
324 324 322 321 319 321 322 323 323 322 320 318 317 315 313 312 308 305 304 304 301 300
325 322 324 323 324 322 322 321 320 320 319 317 316 314 310 307 304 304 302 300 300 299
324 324 322 322 321 322 318 315 315 315 315 314 312 308 306 304 303 302 300 299 299 299
324 324 322 319 318 320 316 316 316 315 313 311 307 305 303 301 300 299 298 298 298 298
322 322 321 321 320 320 318 317 315 313 311 306 304 302 300 299 298 298 297 297 297 297
323 322 320 316 314 313 311 309 308 306 304 302 301 299 299 298 298 297 297 297 296 297
316 314 311 309 308 307 306 304 303 303 301 300 299 298 298 297 296 296 296 297 297 297
311 310 308 306 304 304 303 302 301 299 299 298 298 298 297 297 296 296 296 296 297 297
310 307 305 304 302 301 300 300 299 298 297 296 297 293 294 295 296 296 296 294 295 293
309 306 304 303 301 300 298 297 295 295 295 294 294 293 293 293 296 294 292 290 291 292
304 303 302 299 298 297 296 295 295 297 298 297 296 292 292 290 290 289 288 288 287 286
302 300 299 298 298 297 297 297 297 297 294 293 294 291 291 289 286 286 284 285 285 285
301 299 297 297 297 297 295 297 296 294 291 289 286 287 288 285 281 279 279 281 282 283
298 297 296 295 294 294 293 290 287 287 287 285 284 284 284 283 279 278 279 278 278 278

GFSNIL_sfc_thetae_060.txt.gz
Theta_e
318 319 320 318 316 315 317 320 322 321 321 319 319 318 316 313 312 310 308 305 304 300
318 319 321 322 318 317 319 320 318 320 321 318 318 318 314 311 305 305 304 304 302 300
320 321 322 321 319 320 319 318 316 317 319 317 317 314 311 307 304 303 302 301 300 300
321 322 321 321 319 320 318 315 313 315 316 315 312 309 305 303 302 301 299 299 299 299
321 322 321 321 320 319 316 315 314 314 311 309 306 304 302 301 301 299 298 298 298 298
322 322 323 321 322 322 315 313 312 312 310 305 303 301 300 299 299 299 298 298 297 297
321 321 320 317 314 313 312 308 307 306 304 302 300 300 299 299 298 297 297 297 297 297
319 315 312 310 308 306 305 304 302 302 301 299 299 299 298 298 296 296 295 296 297 297
311 309 307 305 305 303 302 302 300 299 299 298 298 293 294 295 295 295 295 295 295 294
308 306 304 304 302 300 299 299 299 297 297 296 295 292 293 292 295 295 294 291 288 288
306 303 302 301 300 300 299 296 296 295 294 293 293 292 291 290 290 287 286 285 284 283
304 302 301 299 297 295 294 294 294 295 294 292 291 291 288 288 284 283 282 283 283 281
303 300 298 296 295 295 295 296 296 293 291 290 289 288 288 285 280 279 279 280 280 282
298 297 297 296 296 295 292 290 287 285 284 284 284 284 285 283 279 279 279 278 278 278

GFSNIL_sfc_thetae_066.txt.gz
Theta_e
310 310 310 309 310 308 308 309 310 311 314 315 315 315 313 314 315 315 314 313 312 311
310 309 310 309 310 309 309 311 310 311 312 313 314 314 316 316 315 315 314 312 311 309
309 309 310 310 310 313 313 312 311 312 312 313 313 314 316 316 317 317 314 310 307 306
309 309 311 312 312 314 316 317 316 317 317 317 317 315 315 317 313 311 309 307 306 304
310 311 310 311 314 315 315 318 319 319 318 317 317 316 315 313 308 308 304 302 302 301
311 311 311 312 313 315 316 317 318 318 317 316 314 312 311 310 307 305 304 302 301 300
312 312 312 313 314 316 318 319 319 318 317 314 311 309 307 306 302 301 300 300 300 299
315 315 315 315 316 315 318 319 319 315 310 306 305 304 303 302 300 299 298 298 298 298
316 317 316 317 318 318 317 317 314 310 309 303 303 299 297 299 299 298 296 295 293 292
316 317 317 318 316 312 312 309 306 304 304 301 298 295 296 294 298 296 295 291 289 287
316 316 311 309 308 306 303 304 302 302 300 298 295 293 293 293 292 290 289 288 287 284
314 309 307 305 303 301 300 299 298 298 297 294 292 290 289 289 286 284 283 283 283 283
309 306 304 301 299 299 299 296 295 294 294 290 289 289 288 286 284 281 280 281 281 282
304 301 300 297 297 296 294 291 288 287 287 287 287 287 287 285 283 281 279 278 277 279

GFSNIL_sfc_thetae_072.txt.gz
Theta_e
323 323 322 322 321 322 321 321 323 323 321 322 322 321 324 325 325 326 326 326 326 325
323 324 325 324 324 324 324 323 324 325 324 324 324 325 326 325 325 325 326 326 327 325
322 323 323 325 325 326 325 325 325 325 325 325 324 324 324 324 325 324 326 325 325 325
322 322 324 325 325 325 326 325 324 323 324 322 323 323 323 323 323 323 324 325 324 323
323 322 322 323 325 327 326 326 325 323 321 322 322 323 324 323 322 323 323 323 322 318
322 322 323 322 322 323 323 323 324 323 323 322 323 322 322 324 322 323 322 321 316 314
321 323 322 322 321 322 322 320 321 322 322 323 322 320 321 318 317 316 315 316 316 314
322 322 322 321 321 322 322 321 321 322 323 323 320 317 318 320 319 315 313 311 310 310
323 322 322 321 321 322 321 321 322 323 322 321 320 306 302 313 316 313 309 305 302 302
322 321 322 321 321 320 321 322 322 321 321 322 322 298 299 299 315 310 305 300 296 293
321 321 321 321 320 321 321 321 321 322 322 322 318 297 297 294 304 299 297 295 293 289
322 320 321 320 321 321 320 319 318 316 313 311 302 294 294 295 293 289 288 288 288 287
322 322 321 322 319 311 313 307 300 297 298 294 293 292 292 292 289 285 284 285 285 285
323 322 321 310 309 305 298 295 293 292 290 291 290 289 289 289 287 284 282 281 281 282

GFSNIL_sfc_thetae_075.txt.gz
Theta_e
324 324 325 323 322 323 320 320 321 320 319 318 319 322 322 321 324 321 324 325 326 323
326 325 324 325 326 324 324 324 324 322 319 319 319 321 325 319 320 321 322 322 326 324
326 326 327 327 326 326 326 326 324 323 322 321 320 322 325 324 323 319 320 325 326 326
327 327 329 328 328 328 328 327 326 325 324 323 323 324 324 323 324 322 323 324 324 324
327 326 327 328 329 330 328 328 327 326 325 325 324 325 324 323 322 323 322 324 324 323
327 327 326 327 328 328 329 328 326 325 325 324 324 324 324 324 324 324 323 324 324 323
327 327 327 327 327 327 327 327 327 326 326 325 324 324 324 323 323 324 323 323 323 323
327 327 326 327 326 326 326 326 327 326 326 327 325 323 324 323 321 319 319 319 318 318
326 326 326 327 327 326 325 325 326 325 325 325 323 309 302 311 317 315 315 315 317 315
327 326 327 326 325 325 324 325 324 324 324 324 325 302 301 300 318 316 316 317 312 302
326 326 326 326 325 325 325 324 324 324 325 324 323 298 300 297 316 318 315 308 302 296
325 324 325 325 325 326 325 324 323 323 322 320 320 296 297 300 298 292 290 290 291 291
325 325 324 325 325 325 324 322 317 305 303 297 300 293 294 295 292 287 286 287 287 287
324 324 323 324 326 324 315 303 296 292 292 291 292 290 292 291 288 285 283 283 283 284

GFSNIL_sfc_thetae_081.txt.gz
Theta_e
321 320 319 319 319 318 318 317 317 318 319 320 320 320 319 319 319 318 317 315 315 315
319 319 319 320 320 320 319 319 318 316 317 318 318 318 318 317 316 317 317 316 315 316
320 320 321 320 319 320 319 317 317 317 317 318 317 317 316 316 316 316 316 316 315 315
321 322 323 321 321 321 321 318 316 316 316 316 316 315 314 314 314 315 315 316 316 316
319 320 321 321 321 321 321 321 318 317 314 315 316 316 314 313 314 313 314 315 315 315
318 318 318 319 320 321 321 321 320 319 317 314 315 315 314 314 313 313 313 314 314 314
319 319 319 320 319 320 320 320 319 319 318 318 317 316 315 315 313 313 314 314 314 314
320 321 321 320 320 321 321 321 321 320 319 319 318 317 316 316 314 313 313 313 314 315
319 320 320 320 320 320 321 321 321 320 319 318 319 308 303 311 315 314 313 312 313 314
320 319 320 321 320 319 319 320 320 320 320 319 319 303 302 300 316 315 314 314 314 313
321 320 320 319 320 320 320 318 318 319 319 319 319 302 299 298 313 316 315 314 314 312
310 310 318 319 318 320 319 318 318 319 319 317 318 301 299 298 310 312 314 298 297 306
303 302 303 313 320 320 320 319 319 318 317 311 318 299 298 299 311 300 289 287 288 289
295 296 298 300 311 318 318 317 313 301 293 293 295 294 294 294 297 296 287 285 284 286

GFSNIL_sfc_thetae_087.txt.gz
Theta_e
320 319 317 317 316 314 315 316 315 314 317 317 318 319 318 317 317 317 315 313 312 313
320 319 318 317 317 315 314 316 317 317 316 317 317 317 318 318 316 317 316 315 314 313
319 320 320 319 317 317 315 314 314 314 316 317 318 318 318 317 318 317 317 316 315 314
318 320 320 319 319 319 318 316 314 315 315 315 317 318 318 318 318 316 316 317 316 316
318 319 319 319 320 320 319 319 317 315 315 314 315 316 316 316 317 315 316 317 316 315
316 317 318 319 319 319 319 319 319 318 316 315 314 314 314 315 315 314 315 315 315 314
316 317 318 318 319 319 319 319 319 319 318 317 316 314 313 314 314 314 314 313 314 314
318 318 319 319 319 319 319 319 319 318 318 317 316 316 315 314 313 312 313 313 312 312
318 318 318 318 318 318 319 318 318 317 317 316 315 305 301 309 313 313 312 311 312 312
304 305 307 312 317 317 317 317 317 318 318 317 317 304 300 299 313 313 312 312 312 311
297 298 301 303 302 304 309 317 317 317 317 318 318 304 302 299 310 312 313 313 312 312
291 293 294 294 295 298 300 303 306 317 318 317 317 303 300 300 310 312 312 314 314 313
287 288 288 289 291 292 295 298 301 304 301 292 294 289 290 296 312 310 310 312 312 302
285 286 286 286 288 289 291 293 292 289 287 286 285 286 288 290 295 308 308 307 303 287

GFSNIL_sfc_thetae_090.txt.gz
Theta_e
316 317 318 317 317 316 317 318 318 319 319 318 318 317 317 316 315 314 313 312 312 311
318 316 318 317 317 317 314 317 316 316 317 317 317 319 316 316 316 316 314 313 312 312
318 317 318 317 315 313 313 314 314 314 314 315 315 317 318 317 317 316 317 316 314 314
318 317 319 318 315 314 313 313 313 314 314 314 315 316 315 316 317 315 316 316 315 314
317 317 318 318 318 318 316 314 314 313 313 314 314 315 315 314 315 314 314 315 315 314
316 315 316 318 319 319 319 318 316 314 313 313 313 315 316 316 315 315 315 315 314 314
316 315 315 316 318 319 319 318 318 318 316 315 314 313 314 314 314 314 314 315 315 315
316 316 317 316 317 318 318 317 317 317 317 317 316 315 313 314 314 313 313 314 313 314
306 314 315 317 318 318 317 318 318 317 316 315 316 305 301 308 313 313 312 312 312 313
300 301 302 304 304 305 309 316 318 318 318 317 317 302 301 298 313 314 313 312 312 312
293 295 296 296 297 298 300 302 305 307 314 317 318 296 297 297 309 313 314 314 313 313
288 289 290 291 292 293 295 297 300 298 293 291 293 288 289 291 307 310 312 314 314 314
286 286 286 286 287 290 293 294 294 290 288 286 287 286 288 289 295 303 309 310 311 296
285 285 285 285 286 287 289 289 288 286 284 284 284 285 287 288 291 290 287 285 285 285

GFSNIL_sfc_thetae_093.txt.gz
Theta_e
319 322 323 322 321 321 319 319 320 319 317 315 314 313 313 317 315 317 317 316 317 318
320 322 322 321 321 320 321 320 320 320 318 316 314 314 312 316 315 315 318 317 316 317
320 320 322 322 321 319 319 321 320 318 319 319 316 313 312 316 318 316 316 316 315 317
320 320 321 320 320 318 320 321 322 322 319 318 319 320 318 319 318 316 316 318 315 314
321 319 320 321 320 321 322 322 322 322 321 321 322 322 321 320 318 317 316 317 319 317
318 318 319 322 321 321 321 321 320 321 319 320 320 320 320 318 318 318 319 318 319 320
317 318 320 322 322 322 321 321 318 318 319 320 319 320 319 318 318 318 318 321 322 322
319 320 321 322 322 322 322 322 322 321 320 319 319 318 318 319 319 319 318 319 319 319
305 305 306 308 315 318 318 319 319 320 321 321 320 305 301 310 319 318 318 319 319 320
297 298 299 301 302 301 302 306 308 311 314 317 306 289 292 296 314 315 314 315 315 315
292 292 294 295 296 296 299 301 301 295 294 297 290 288 289 288 300 311 315 315 314 314
289 290 291 291 292 294 296 296 292 290 288 289 287 287 288 289 298 305 309 312 303 292
288 288 288 288 289 292 293 291 289 286 286 285 286 286 287 289 295 296 291 288 286 285
287 287 287 287 288 289 289 288 286 284 284 284 284 286 285 286 288 288 285 283 282 283

GFSNIL_sfc_thetae_099.txt.gz
Theta_e
334 330 328 327 326 326 322 322 321 320 319 319 321 322 321 320 319 320 320 320 321 321
332 330 327 328 328 327 326 324 323 320 317 318 318 318 318 318 318 319 319 321 322 320
331 328 328 328 326 327 328 324 322 321 318 317 318 319 318 317 318 317 319 317 321 321
328 327 327 327 327 325 327 325 322 320 319 316 315 315 314 315 315 315 316 317 319 317
325 325 324 325 326 327 326 326 325 323 319 317 315 315 314 314 313 312 312 314 314 315
322 322 323 324 326 325 324 324 325 324 320 318 317 316 316 315 315 316 316 315 318 319
321 322 322 324 325 325 324 324 324 325 324 322 321 319 317 316 316 318 320 321 321 322
320 321 322 321 324 324 324 324 325 325 325 324 322 307 308 318 318 320 318 322 322 320
303 303 304 307 309 319 318 316 315 309 317 300 295 289 290 295 319 321 320 319 320 320
297 298 298 301 301 300 299 299 299 295 293 290 290 288 289 289 307 319 316 307 309 312
293 293 295 296 295 293 293 291 292 291 290 288 287 287 288 289 302 296 291 290 291 292
290 290 294 292 292 291 289 288 287 289 289 287 286 287 288 297 294 289 286 286 286 287
288 289 289 291 291 290 288 287 287 286 286 287 285 286 287 294 292 287 285 284 284 284
286 287 289 289 290 290 290 289 288 287 287 285 285 285 286 288 289 286 284 283 283 284